CW5757 Weather Reports


Display with metric or nautical units.
time (UTC)temp
F
wind
direction
speed
MPH
gust
MPH
rain 1hr
in
rain 24hr
in
rain mn
in
humidity
%
barometer
mb
20260902202810 95 92 0.0 0.0 0.00 0.00 0.00 39 1017.0
20260902202257 95 92 0.0 0.0 0.00 0.00 0.00 40 1017.0
20260902201757 95 92 0.0 0.0 0.00 0.00 0.00 40 1017.1
20260902201257 95 92 0.0 0.0 0.00 0.00 0.00 40 1017.4
20260902200802 96 92 0.0 0.0 0.00 0.00 0.00 41 1017.4
20260902200309 96 92 0.0 0.0 0.00 0.00 0.00 39 1017.5
20260902195757 96 92 0.0 0.0 0.00 0.00 0.00 38 1017.5
20260902195257 97 92 0.0 0.0 0.00 0.00 0.00 38 1017.5
20260902194803 97 92 0.0 0.0 0.00 0.00 0.00 37 1017.6
20260902194309 97 92 0.0 0.0 0.00 0.00 0.00 37 1017.6
20260902193757 97 92 0.0 0.0 0.00 0.00 0.00 38 1017.7
20260902193257 97 92 0.0 0.0 0.00 0.00 0.00 37 1017.7
20260902192757 97 92 0.0 0.0 0.00 0.00 0.00 36 1017.8
20260902192257 97 92 0.0 0.0 0.00 0.00 0.00 38 1017.8
20260902191757 97 92 0.0 0.0 0.00 0.00 0.00 38 1018.0
20260902191257 98 92 0.0 0.0 0.00 0.00 0.00 38 1017.9
20260902190757 98 92 0.0 0.0 0.00 0.00 0.00 38 1018.1
20260902190257 97 92 0.0 0.0 0.00 0.00 0.00 37 1018.0
20260902185758 97 92 0.0 0.0 0.00 0.00 0.00 40 1018.1
20260902185306 97 92 0.0 0.0 0.00 0.00 0.00 40 1018.2
20260902184810 97 92 0.0 0.0 0.00 0.00 0.00 39 1018.2
20260902184257 96 92 0.0 0.0 0.00 0.00 0.00 39 1018.3
20260902183757 95 92 0.0 0.0 0.00 0.00 0.00 39 1018.3
20260902183257 95 92 0.0 0.0 0.00 0.00 0.00 39 1018.5
20260902182757 95 92 0.0 0.0 0.00 0.00 0.00 42 1018.5
20260902182257 95 92 0.0 0.0 0.00 0.00 0.00 43 1018.6
20260902181757 95 92 0.0 0.0 0.00 0.00 0.00 42 1018.6
20260902181257 96 92 0.0 0.0 0.00 0.00 0.00 41 1018.7
20260902180757 96 92 0.0 0.0 0.00 0.00 0.00 40 1018.7
20260902180257 97 92 0.0 0.0 0.00 0.00 0.00 39 1018.8
20260902175802 96 92 0.0 0.0 0.00 0.00 0.00 38 1018.7
20260902175309 96 92 0.0 0.0 0.00 0.00 0.00 41 1018.7
20260902174757 95 92 0.0 0.0 0.00 0.00 0.00 44 1018.9
20260902174257 93 92 0.0 0.0 0.00 0.00 0.00 47 1018.9
20260902173758 93 92 0.0 0.0 0.00 0.00 0.00 46 1018.9
20260902173257 93 92 0.0 0.0 0.00 0.00 0.00 47 1019.1
20260902172757 93 92 0.0 0.0 0.00 0.00 0.00 46 1019.2
20260902172307 94 92 0.0 0.0 0.00 0.00 0.00 44 1019.2
20260902171809 94 92 0.0 0.0 0.00 0.00 0.00 45 1019.3
20260902171258 94 92 0.0 0.0 0.00 0.00 0.00 44 1019.3
20260902170802 95 92 0.0 0.0 0.00 0.00 0.00 44 1019.4
20260902170310 95 92 0.0 0.0 0.00 0.00 0.00 43 1019.4
20260902165757 95 92 0.0 0.0 0.00 0.00 0.00 42 1019.4
20260902165257 96 92 0.0 0.0 0.00 0.00 0.00 44 1019.5
20260902164757 96 92 0.0 0.0 0.00 0.00 0.00 42 1019.6
20260902164258 96 92 0.0 0.0 0.00 0.00 0.00 43 1019.5
20260902163806 96 92 0.0 0.0 0.00 0.00 0.00 41 1019.6
20260902163313 96 92 0.0 2.0 0.00 0.00 0.00 41 1019.6
20260902162819 96 92 0.0 2.0 0.00 0.00 0.00 42 1019.7
20260902162314 95 92 0.0 1.0 0.00 0.00 0.00 41 1019.7
20260902161821 95 92 0.0 1.0 0.00 0.00 0.00 43 1019.7
20260902161302 95 92 0.0 0.0 0.00 0.00 0.00 44 1019.8
20260902160809 94 92 0.0 0.0 0.00 0.00 0.00 44 1019.8
20260902160258 94 92 0.0 0.0 0.00 0.00 0.00 46 1019.7
20260902155802 94 92 0.0 0.0 0.00 0.00 0.00 47 1019.9
20260902155310 93 92 0.0 0.0 0.00 0.00 0.00 47 1020.0
20260902154757 93 92 0.0 0.0 0.00 0.00 0.00 49 1020.0
20260902154257 92 92 0.0 0.0 0.00 0.00 0.00 49 1020.0
20260902153757 92 92 0.0 0.0 0.00 0.00 0.00 50 1020.0
20260902153257 91 92 0.0 0.0 0.00 0.00 0.00 50 1020.1
20260902152757 91 92 0.0 0.0 0.00 0.00 0.00 51 1020.0
20260902152257 90 92 0.0 0.0 0.00 0.00 0.00 53 1020.1
20260902151757 90 92 0.0 0.0 0.00 0.00 0.00 53 1020.1
20260902151257 89 92 0.0 0.0 0.00 0.00 0.00 57 1019.8
20260902150757 88 92 0.0 0.0 0.00 0.00 0.00 58 1019.9
20260902150257 87 92 0.0 0.0 0.00 0.00 0.00 59 1019.9
20260902145757 86 92 0.0 0.0 0.00 0.00 0.00 63 1019.9
20260902145257 85 92 0.0 0.0 0.00 0.00 0.00 64 1019.9
20260902144757 84 92 0.0 0.0 0.00 0.00 0.00 67 1019.9
20260902144257 84 92 0.0 0.0 0.00 0.00 0.00 67 1019.9
20260902143802 83 92 0.0 0.0 0.00 0.00 0.00 69 1020.0
20260902143309 82 92 0.0 0.0 0.00 0.00 0.00 71 1019.9
20260902142758 81 92 0.0 0.0 0.00 0.00 0.00 73 1019.9
20260902142257 81 92 0.0 0.0 0.00 0.00 0.00 74 1019.9
20260902141757 80 92 0.0 0.0 0.00 0.00 0.00 75 1020.0
20260902141257 79 92 0.0 0.0 0.00 0.00 0.00 76 1020.0
20260902140758 79 92 0.0 0.0 0.00 0.00 0.00 76 1020.0
20260902140257 78 92 0.0 0.0 0.00 0.00 0.00 78 1020.0
20260902135757 78 92 0.0 0.0 0.00 0.00 0.00 79 1020.0
20260902135306 77 92 0.0 0.0 0.00 0.00 0.00 80 1020.0
20260902134809 77 92 0.0 0.0 0.00 0.00 0.00 81 1020.0
20260902134257 76 92 0.0 0.0 0.00 0.00 0.00 82 1020.0
20260902133757 76 92 0.0 0.0 0.00 0.00 0.00 82 1019.9
20260902133257 75 92 0.0 0.0 0.00 0.00 0.00 82 1020.0
20260902132757 75 92 0.0 0.0 0.00 0.00 0.00 82 1020.0
20260902132257 74 92 0.0 0.0 0.00 0.00 0.00 82 1020.0
20260902131757 74 92 0.0 0.0 0.00 0.00 0.00 83 1019.9
20260902131257 74 92 0.0 0.0 0.00 0.00 0.00 83 1019.9
20260902130757 73 92 0.0 0.0 0.00 0.00 0.00 83 1020.0
20260902130257 73 92 0.0 0.0 0.00 0.00 0.00 84 1020.0
20260902125757 73 92 0.0 0.0 0.00 0.00 0.00 84 1019.9
20260902125257 72 92 0.0 0.0 0.00 0.00 0.00 84 1020.0
20260902124757 72 92 0.0 0.0 0.00 0.00 0.00 84 1020.0
20260902124257 72 92 0.0 0.0 0.00 0.00 0.00 84 1019.9
20260902123757 72 92 0.0 0.0 0.00 0.00 0.00 83 1020.0
20260902123257 72 92 0.0 0.0 0.00 0.00 0.00 84 1020.0
20260902122757 72 92 0.0 0.0 0.00 0.00 0.00 84 1019.9
20260902122257 71 92 0.0 0.0 0.00 0.00 0.00 83 1019.8
20260902121805 71 92 0.0 0.0 0.00 0.00 0.00 83 1019.8
20260902121309 71 92 0.0 0.0 0.00 0.00 0.00 83 1019.8
20260902120757 71 92 0.0 0.0 0.00 0.00 0.00 83 1019.8
20260902120257 71 92 0.0 0.0 0.00 0.00 0.00 83 1019.7
20260902115757 71 92 0.0 0.0 0.00 0.00 0.00 83 1019.8
20260902115306 71 92 0.0 0.0 0.00 0.00 0.00 83 1019.9
20260902114809 71 92 0.0 0.0 0.00 0.00 0.00 82 1019.8
20260902114302 71 92 0.0 0.0 0.00 0.00 0.00 82 1019.7
20260902113809 71 92 0.0 0.0 0.00 0.00 0.00 82 1019.6
20260902113257 71 92 0.0 0.0 0.00 0.00 0.00 82 1019.6
20260902112757 71 92 0.0 0.0 0.00 0.00 0.00 82 1019.5
20260902112257 71 92 0.0 0.0 0.00 0.00 0.00 82 1019.5
20260902111757 71 92 0.0 0.0 0.00 0.00 0.00 82 1019.4
20260902111257 71 92 0.0 0.0 0.00 0.00 0.00 82 1019.2
20260902110758 71 92 0.0 0.0 0.00 0.00 0.00 82 1019.3
20260902110257 71 92 0.0 0.0 0.00 0.00 0.00 82 1019.3
20260902105757 72 92 0.0 0.0 0.00 0.00 0.00 81 1019.2
20260902105126 72 92 0.0 0.0 0.00 0.00 0.00 82 1019.2
20260902104614 72 92 0.0 0.0 0.00 0.00 0.00 82 1019.1
20260902104119 72 92 0.0 0.0 0.00 0.00 0.00 82 1019.0
20260902103626 72 92 0.0 0.0 0.00 0.00 0.00 81 1019.0
20260902103114 72 92 0.0 0.0 0.00 0.00 0.00 81 1019.0
20260902102615 72 92 0.0 0.0 0.00 0.00 0.00 81 1019.0
20260902102114 72 92 0.0 0.0 0.00 0.00 0.00 81 1018.9
20260902101614 72 92 0.0 0.0 0.00 0.00 0.00 81 1019.0
20260902101119 72 92 0.0 0.0 0.00 0.00 0.00 81 1019.0
20260902100626 72 92 0.0 0.0 0.00 0.00 0.00 81 1018.9
20260902100117 72 92 0.0 0.0 0.00 0.00 0.00 81 1018.9
20260902095619 72 92 0.0 0.0 0.00 0.00 0.00 81 1018.9
20260902095126 72 92 0.0 0.0 0.00 0.00 0.00 81 1018.8
20260902094614 72 92 0.0 0.0 0.00 0.00 0.00 81 1018.7
20260902094114 72 92 0.0 0.0 0.00 0.00 0.00 80 1018.8
20260902093614 73 92 0.0 0.0 0.00 0.00 0.00 80 1018.7
20260902093114 73 92 0.0 0.0 0.00 0.00 0.00 80 1018.6
20260902092614 73 92 0.0 0.0 0.00 0.00 0.00 80 1018.6
20260902092114 73 92 0.0 0.0 0.00 0.00 0.00 81 1018.7
20260902091141 73 92 0.0 0.0 0.00 0.00 0.00 81 1018.5
20260902090259 73 92 0.0 0.0 0.00 0.00 0.00 81 1018.6
20260902085342 73 92 0.0 0.0 0.00 0.00 0.00 80 1018.6
20260902084413 73 92 0.0 0.0 0.00 0.00 0.00 80 1018.5
20260902083911 73 92 0.0 0.0 0.00 0.00 0.00 79 1018.4
20260902083419 73 92 0.0 0.0 0.00 0.00 0.00 79 1018.3
20260902082926 73 92 0.0 0.0 0.00 0.00 0.00 79 1018.3
20260902082357 73 92 0.0 0.0 0.00 0.00 0.00 79 1018.2
20260902081832 73 92 0.0 0.0 0.00 0.00 0.00 79 1018.2
20260902081332 74 92 0.0 0.0 0.00 0.00 0.00 79 1018.2
20260902080838 74 92 0.0 0.0 0.00 0.00 0.00 79 1018.2
20260902080345 74 92 0.0 0.0 0.00 0.00 0.00 79 1018.2
20260902075832 74 92 0.0 0.0 0.00 0.00 0.00 79 1018.2
20260902075332 74 92 0.0 0.0 0.00 0.00 0.00 79 1018.2
20260902074832 74 92 0.0 0.0 0.00 0.00 0.00 78 1018.2
20260902074332 74 92 0.0 0.0 0.00 0.00 0.00 78 1018.1
20260902073833 74 92 0.0 0.0 0.00 0.00 0.00 79 1018.1
20260902073332 74 92 0.0 0.0 0.00 0.00 0.00 78 1018.0
20260902072838 74 92 0.0 0.0 0.00 0.00 0.00 79 1018.2
20260902072345 74 92 0.0 0.0 0.00 0.00 0.00 79 1018.1
20260902071832 75 92 0.0 0.0 0.00 0.00 0.00 78 1018.2
20260902071332 75 92 0.0 0.0 0.00 0.00 0.00 78 1018.2
20260902070832 75 92 0.0 0.0 0.00 0.00 0.00 78 1018.1
20260902070332 75 92 0.0 0.0 0.00 0.00 0.00 77 1018.1
20260902065832 75 92 0.0 0.0 0.00 0.00 0.00 77 1018.1
20260902065332 75 92 0.0 0.0 0.00 0.00 0.00 77 1018.1
20260902064833 75 92 0.0 0.0 0.00 0.00 0.00 77 1018.1
20260902064332 75 92 0.0 0.0 0.00 0.00 0.00 77 1018.2
20260902063838 75 92 0.0 0.0 0.00 0.00 0.00 77 1018.3
20260902063345 75 92 0.0 0.0 0.00 0.00 0.00 78 1018.3
20260902062832 75 92 0.0 0.0 0.00 0.00 0.00 77 1018.4
20260902062337 76 92 0.0 0.0 0.00 0.00 0.00 77 1018.4
20260902061844 76 92 0.0 0.0 0.00 0.00 0.00 77 1018.4
20260902061332 76 92 0.0 0.0 0.00 0.00 0.00 76 1018.4
20260902060832 76 92 0.0 0.0 0.00 0.00 0.00 76 1018.5
20260902060332 76 92 0.0 0.0 0.00 0.00 0.00 76 1018.5
20260902055832 76 92 0.0 0.0 0.00 0.00 0.00 76 1018.5
20260902055332 76 92 0.0 0.0 0.00 0.00 0.00 76 1018.5
20260902054836 76 92 0.0 0.0 0.00 0.00 0.00 76 1018.5
20260902054343 76 92 0.0 0.0 0.00 0.00 0.00 75 1018.5
20260902053850 77 92 0.0 0.0 0.00 0.00 0.00 75 1018.5
20260902053344 77 92 0.0 0.0 0.00 0.00 0.00 74 1018.5
20260902052833 77 92 0.0 0.0 0.00 0.00 0.00 74 1018.5
20260902052333 77 92 0.0 0.0 0.00 0.00 0.00 74 1018.4
20260902051832 77 92 0.0 0.0 0.00 0.00 0.00 74 1018.5
20260902051332 77 92 0.0 0.0 0.00 0.00 0.00 73 1018.5
20260902050832 78 92 0.0 0.0 0.00 0.00 0.00 73 1018.3
20260902050332 78 92 0.0 0.0 0.00 0.00 0.00 73 1018.3
20260902045832 78 92 0.0 0.0 0.00 0.00 0.00 73 1018.3
20260902045337 78 92 0.0 0.0 0.00 0.00 0.00 72 1018.4
20260902044844 78 92 0.0 0.0 0.00 0.00 0.00 72 1018.4
20260902044052 78 92 0.0 0.0 0.00 0.00 0.00 72 1018.5
20260902043552 79 92 0.0 0.0 0.00 0.00 0.00 71 1018.3
20260902043054 79 92 0.0 0.0 0.00 0.00 0.00 71 1018.2
20260902042552 79 92 0.0 0.0 0.00 0.00 0.00 71 1018.3
20260902042051 79 92 0.0 0.0 0.00 0.00 0.00 71 1018.2
20260902041551 79 92 0.0 0.0 0.00 0.00 0.00 71 1018.3
20260902041051 79 92 0.0 0.0 0.00 0.00 0.00 70 1018.3
20260902040552 79 92 0.0 0.0 0.00 0.00 0.00 70 1018.3
20260902040051 80 92 0.0 0.0 0.00 0.00 0.00 70 1018.4
20260902035552 80 92 0.0 0.0 0.00 0.00 0.00 70 1018.4
20260902035052 80 92 0.0 0.0 0.00 0.00 0.00 69 1018.3
20260902034556 80 92 0.0 0.0 0.00 0.00 0.00 69 1018.2
20260902034104 80 92 0.0 0.0 0.00 0.00 0.00 69 1018.3
20260902033552 80 92 0.0 0.0 0.00 0.00 0.00 69 1018.3
20260902033052 81 92 0.0 0.0 0.00 0.00 0.00 68 1018.2
20260902032552 81 92 0.0 0.0 0.00 0.00 0.00 67 1018.2
20260902032052 81 92 0.0 0.0 0.00 0.00 0.00 66 1018.3
20260902031552 81 92 0.0 0.0 0.00 0.00 0.00 66 1018.3
20260902031051 81 92 0.0 0.0 0.00 0.00 0.00 66 1018.3
20260902030552 82 92 0.0 0.0 0.00 0.00 0.00 66 1018.4
20260902030052 82 92 0.0 0.0 0.00 0.00 0.00 65 1018.4
20260902025554 82 92 0.0 0.0 0.00 0.00 0.00 64 1018.5
20260902025101 82 92 0.0 0.0 0.00 0.00 0.00 65 1018.4
20260902024609 82 92 0.0 0.0 0.00 0.00 0.00 64 1018.3
20260902024116 83 92 0.0 0.0 0.00 0.00 0.00 64 1018.4
20260902023551 83 92 0.0 0.0 0.00 0.00 0.00 64 1018.4
20260902023051 83 92 0.0 0.0 0.00 0.00 0.00 63 1018.3
20260902022551 83 92 0.0 0.0 0.00 0.00 0.00 62 1018.3
20260902022057 83 92 0.0 0.0 0.00 0.00 0.00 61 1018.2
20260902021604 84 92 0.0 0.0 0.00 0.00 0.00 61 1018.2
20260902021056 84 92 0.0 0.0 0.00 0.00 0.00 61 1018.2
20260902020604 84 92 0.0 0.0 0.00 0.00 0.00 61 1018.3
20260902020052 84 92 0.0 0.0 0.00 0.00 0.00 60 1018.2
20260902015551 84 92 0.0 0.0 0.00 0.00 0.00 60 1018.1
20260902015051 85 92 0.0 0.0 0.00 0.00 0.00 60 1018.0
20260902014556 85 92 0.0 0.0 0.00 0.00 0.00 60 1017.9
20260902014103 85 92 0.0 0.0 0.00 0.00 0.00 59 1017.9
20260902013556 85 92 0.0 0.0 0.00 0.00 0.00 58 1017.8
20260902013104 86 92 0.0 0.0 0.00 0.00 0.00 60 1017.8
20260902012557 86 92 0.0 0.0 0.00 0.00 0.00 59 1017.8
20260902012104 86 92 0.0 0.0 0.00 0.00 0.00 56 1017.7
20260902011552 87 92 0.0 0.0 0.00 0.00 0.00 57 1017.7
20260902011056 87 92 0.0 0.0 0.00 0.00 0.00 57 1017.7
20260902010603 87 92 0.0 0.0 0.00 0.00 0.00 57 1017.6
20260902010052 87 92 0.0 0.0 0.00 0.00 0.00 53 1017.6
20260902005556 88 92 0.0 0.0 0.00 0.00 0.00 51 1017.6
20260902005103 88 92 0.0 0.0 0.00 0.00 0.00 51 1017.6
20260902004551 88 92 0.0 0.0 0.00 0.00 0.00 53 1017.5
20260902004052 89 92 0.0 0.0 0.00 0.00 0.00 52 1017.6
20260902003552 89 92 0.0 0.0 0.00 0.00 0.00 51 1017.5
20260902003051 89 92 0.0 0.0 0.00 0.00 0.00 51 1017.5
20260902002551 90 92 0.0 0.0 0.00 0.00 0.00 51 1017.5
20260902002052 90 92 0.0 0.0 0.00 0.00 0.00 49 1017.4
20260902001551 90 92 0.0 0.0 0.00 0.00 0.00 48 1017.4
20260902001052 90 92 0.0 0.0 0.00 0.00 0.00 49 1017.4
20260902000551 91 92 0.0 0.0 0.00 0.00 0.00 48 1017.4
20260902000051 91 92 0.0 0.0 0.00 0.00 0.00 46 1017.3
20260901235552 91 92 0.0 0.0 0.00 0.00 0.00 46 1017.3
20260901235051 91 92 0.0 0.0 0.00 0.00 0.00 44 1017.3
20260901234552 92 92 0.0 0.0 0.00 0.00 0.00 44 1017.3
20260901234051 92 92 0.0 0.0 0.00 0.00 0.00 44 1017.2
20260901233551 92 92 0.0 0.0 0.00 0.00 0.00 45 1017.3
20260901233051 92 92 0.0 0.0 0.00 0.00 0.00 45 1017.2
20260901232551 92 92 0.0 0.0 0.00 0.00 0.00 42 1017.2
20260901232051 92 92 0.0 0.0 0.00 0.00 0.00 41 1017.2
20260901231551 92 92 0.0 0.0 0.00 0.00 0.00 41 1017.2
20260901231051 92 92 0.0 0.0 0.00 0.00 0.00 41 1017.3
20260901230551 92 92 0.0 0.0 0.00 0.00 0.00 40 1017.3
20260901230052 92 92 0.0 0.0 0.00 0.00 0.00 40 1017.3
20260901225557 92 92 0.0 0.0 0.00 0.00 0.00 41 1017.3
20260901225104 93 92 0.0 0.0 0.00 0.00 0.00 41 1017.3
20260901224551 93 92 0.0 0.0 0.00 0.00 0.00 41 1017.3
20260901224056 93 92 0.0 0.0 0.00 0.00 0.00 40 1017.2
20260901223603 93 92 0.0 0.0 0.00 0.00 0.00 41 1017.2
20260901223111 93 92 0.0 0.0 0.00 0.00 0.00 41 1017.3
20260901222603 93 92 0.0 0.0 0.00 0.00 0.00 41 1017.2
20260901222051 93 92 0.0 0.0 0.00 0.00 0.00 40 1017.2
20260901221551 93 92 0.0 0.0 0.00 0.00 0.00 40 1017.2
20260901221051 93 92 0.0 0.0 0.00 0.00 0.00 40 1017.2
20260901220557 93 92 0.0 0.0 0.00 0.00 0.00 40 1017.2
20260901215551 94 92 0.0 0.0 0.00 0.00 0.00 40 1017.1
20260901215057 94 92 0.0 0.0 0.00 0.00 0.00 39 1017.0
20260901214604 94 92 0.0 0.0 0.00 0.00 0.00 39 1017.0
20260901214051 94 92 0.0 0.0 0.00 0.00 0.00 40 1017.1
20260901213551 94 92 0.0 0.0 0.00 0.00 0.00 40 1017.1
20260901213051 94 92 0.0 0.0 0.00 0.00 0.00 39 1017.1
20260901212551 94 92 0.0 0.0 0.00 0.00 0.00 39 1017.1
20260901212051 94 92 0.0 0.0 0.00 0.00 0.00 39 1017.1
20260901211551 94 92 0.0 0.0 0.00 0.00 0.00 38 1017.0
20260901211051 94 92 0.0 0.0 0.00 0.00 0.00 39 1017.1
20260901210133 94 92 0.0 0.0 0.00 0.00 0.00 37 1017.3
20260901205228 94 92 0.0 0.0 0.00 0.00 0.00 39 1017.4
20260901204337 94 92 0.0 0.0 0.00 0.00 0.00 39 1017.5
20260901203420 94 92 0.0 0.0 0.00 0.00 0.00 37 1017.6